Year,Month,Day,Hour,Minute,Value (Times are PST for temperature in C)
2018,05,13,00,00,15.30
2018,05,13,00,01,15.30
2018,05,13,00,02,15.30
2018,05,13,00,03,15.30
2018,05,13,00,04,15.30
2018,05,13,00,05,15.30
2018,05,13,00,06,15.30
2018,05,13,00,07,15.30
2018,05,13,00,08,15.30
2018,05,13,00,09,15.30
2018,05,13,00,10,15.30
2018,05,13,00,11,15.30
2018,05,13,00,12,15.30
2018,05,13,00,13,15.20
2018,05,13,00,14,15.20
2018,05,13,00,15,15.20
2018,05,13,00,16,15.20
2018,05,13,00,17,15.20
2018,05,13,00,18,15.20
2018,05,13,00,19,15.20
2018,05,13,00,20,15.20
2018,05,13,00,21,15.10
2018,05,13,00,22,15.10
2018,05,13,00,23,15.10
2018,05,13,00,24,15.10
2018,05,13,00,25,15.10
2018,05,13,00,26,15.00
2018,05,13,00,27,15.00
2018,05,13,00,28,15.00
2018,05,13,00,29,15.00
2018,05,13,00,30,14.90
2018,05,13,00,31,14.90
2018,05,13,00,32,14.90
2018,05,13,00,33,14.90
2018,05,13,00,34,14.80
2018,05,13,00,35,14.80
2018,05,13,00,36,14.80
2018,05,13,00,37,14.80
2018,05,13,00,38,14.80
2018,05,13,00,39,14.70
2018,05,13,00,40,14.70
2018,05,13,00,41,14.70
2018,05,13,00,42,14.70
2018,05,13,00,43,14.60
2018,05,13,00,44,14.60
2018,05,13,00,45,14.60
2018,05,13,00,46,14.60
2018,05,13,00,47,14.60
2018,05,13,00,48,14.50
2018,05,13,00,49,14.50
2018,05,13,00,50,14.50
2018,05,13,00,51,14.40
2018,05,13,00,52,14.40
2018,05,13,00,53,14.40
2018,05,13,00,54,14.40
2018,05,13,00,55,14.40
2018,05,13,00,56,14.30
2018,05,13,00,57,14.30
2018,05,13,00,58,14.30
2018,05,13,00,59,14.30
2018,05,13,01,00,14.30
2018,05,13,01,01,14.20
2018,05,13,01,02,14.20
2018,05,13,01,03,14.20
2018,05,13,01,04,14.20
2018,05,13,01,05,14.20
2018,05,13,01,06,14.10
2018,05,13,01,07,14.10
2018,05,13,01,08,14.10
2018,05,13,01,09,14.10
2018,05,13,01,10,14.10
2018,05,13,01,11,14.00
2018,05,13,01,12,14.00
2018,05,13,01,13,14.00
2018,05,13,01,14,14.00
2018,05,13,01,15,13.90
2018,05,13,01,16,13.90
2018,05,13,01,17,13.90
2018,05,13,01,18,13.90
2018,05,13,01,19,13.90
2018,05,13,01,20,13.90
2018,05,13,01,21,13.90
2018,05,13,01,22,13.90
2018,05,13,01,23,13.80
2018,05,13,01,24,13.80
2018,05,13,01,25,13.80
2018,05,13,01,26,13.80
2018,05,13,01,27,13.80
2018,05,13,01,28,13.80
2018,05,13,01,29,13.70
2018,05,13,01,30,13.70
2018,05,13,01,31,13.70
2018,05,13,01,32,13.70
2018,05,13,01,33,13.70
2018,05,13,01,34,13.70
2018,05,13,01,35,13.60
2018,05,13,01,36,13.60
2018,05,13,01,37,13.60
2018,05,13,01,38,13.60
2018,05,13,01,39,13.50
2018,05,13,01,40,13.50
2018,05,13,01,41,13.50
2018,05,13,01,42,13.50
2018,05,13,01,43,13.40
2018,05,13,01,44,13.40
2018,05,13,01,45,13.40
2018,05,13,01,46,13.40
2018,05,13,01,47,13.40
2018,05,13,01,48,13.40
2018,05,13,01,49,13.30
2018,05,13,01,50,13.30
2018,05,13,01,51,13.30
2018,05,13,01,52,13.30
2018,05,13,01,53,13.30
2018,05,13,01,54,13.30
2018,05,13,01,55,13.30
2018,05,13,01,56,13.30
2018,05,13,01,57,13.30
2018,05,13,01,58,13.30
2018,05,13,01,59,13.30
2018,05,13,02,00,13.30
2018,05,13,02,01,13.30
2018,05,13,02,02,13.30
2018,05,13,02,03,13.30
2018,05,13,02,04,13.30
2018,05,13,02,05,13.30
2018,05,13,02,06,13.30
2018,05,13,02,07,13.30
2018,05,13,02,08,13.30
2018,05,13,02,09,13.30
2018,05,13,02,10,13.30
2018,05,13,02,11,13.20
2018,05,13,02,12,13.20
2018,05,13,02,13,13.20
2018,05,13,02,14,13.20
2018,05,13,02,15,13.20
2018,05,13,02,16,13.20
2018,05,13,02,17,13.20
2018,05,13,02,18,13.20
2018,05,13,02,19,13.10
2018,05,13,02,20,13.10
2018,05,13,02,21,13.10
2018,05,13,02,22,13.10
2018,05,13,02,23,13.10
2018,05,13,02,24,13.10
2018,05,13,02,25,13.00
2018,05,13,02,26,13.00
2018,05,13,02,27,13.00
2018,05,13,02,28,13.00
2018,05,13,02,29,12.90
2018,05,13,02,30,12.90
2018,05,13,02,31,12.90
2018,05,13,02,32,12.90
2018,05,13,02,33,12.90
2018,05,13,02,34,12.90
2018,05,13,02,35,12.90
2018,05,13,02,36,12.80
2018,05,13,02,37,12.80
2018,05,13,02,38,12.80
2018,05,13,02,39,12.80
2018,05,13,02,40,12.80
2018,05,13,02,41,12.80
2018,05,13,02,42,12.80
2018,05,13,02,43,12.70
2018,05,13,02,44,12.70
2018,05,13,02,45,12.70
2018,05,13,02,46,12.70
2018,05,13,02,47,12.70
2018,05,13,02,48,12.70
2018,05,13,02,49,12.60
2018,05,13,02,50,12.60
2018,05,13,02,51,12.60
2018,05,13,02,52,12.60
2018,05,13,02,53,12.60
2018,05,13,02,54,12.60
2018,05,13,02,55,12.60
2018,05,13,02,56,12.60
2018,05,13,02,57,12.60
2018,05,13,02,58,12.60
2018,05,13,02,59,12.60
2018,05,13,03,00,12.50
2018,05,13,03,01,12.50
2018,05,13,03,02,12.50
2018,05,13,03,03,12.50
2018,05,13,03,04,12.50
2018,05,13,03,05,12.50
2018,05,13,03,06,12.50
2018,05,13,03,07,12.50
2018,05,13,03,08,12.50
2018,05,13,03,09,12.40
2018,05,13,03,10,12.40
2018,05,13,03,11,12.40
2018,05,13,03,12,12.40
2018,05,13,03,13,12.40
2018,05,13,03,14,12.40
2018,05,13,03,15,12.40
2018,05,13,03,16,12.30
2018,05,13,03,17,12.30
2018,05,13,03,18,12.30
2018,05,13,03,19,12.30
2018,05,13,03,20,12.30
2018,05,13,03,21,12.30
2018,05,13,03,22,12.30
2018,05,13,03,23,12.30
2018,05,13,03,24,12.30
2018,05,13,03,25,12.30
2018,05,13,03,26,12.30
2018,05,13,03,27,12.20
2018,05,13,03,28,12.20
2018,05,13,03,29,12.20
2018,05,13,03,30,12.20
2018,05,13,03,31,12.20
2018,05,13,03,32,12.20
2018,05,13,03,33,12.20
2018,05,13,03,34,12.20
2018,05,13,03,35,12.20
2018,05,13,03,36,12.20
2018,05,13,03,37,12.20
2018,05,13,03,38,12.20
2018,05,13,03,39,12.20
2018,05,13,03,40,12.20
2018,05,13,03,41,12.20
2018,05,13,03,42,12.20
2018,05,13,03,43,12.20
2018,05,13,03,44,12.20
2018,05,13,03,45,12.20
2018,05,13,03,46,12.20
2018,05,13,03,47,12.20
2018,05,13,03,48,12.20
2018,05,13,03,49,12.20
2018,05,13,03,50,12.20
2018,05,13,03,51,12.20
2018,05,13,03,52,12.20
2018,05,13,03,53,12.20
2018,05,13,03,54,12.10
2018,05,13,03,55,12.10
2018,05,13,03,56,12.10
2018,05,13,03,57,12.10
2018,05,13,03,58,12.10
2018,05,13,03,59,12.00
2018,05,13,04,00,12.00
2018,05,13,04,01,12.00
2018,05,13,04,02,11.90
2018,05,13,04,03,11.90
2018,05,13,04,04,11.80
2018,05,13,04,05,11.80
2018,05,13,04,06,11.80
2018,05,13,04,07,11.70
2018,05,13,04,08,11.70
2018,05,13,04,09,11.70
2018,05,13,04,10,11.60
2018,05,13,04,11,11.60
2018,05,13,04,12,11.50
2018,05,13,04,13,11.50
2018,05,13,04,14,11.50
2018,05,13,04,15,11.40
2018,05,13,04,16,11.40
2018,05,13,04,17,11.40
2018,05,13,04,18,11.40
2018,05,13,04,19,11.30
2018,05,13,04,20,11.30
2018,05,13,04,21,11.30
2018,05,13,04,22,11.30
2018,05,13,04,23,11.20
2018,05,13,04,24,11.20
2018,05,13,04,25,11.20
2018,05,13,04,26,11.20
2018,05,13,04,27,11.10
2018,05,13,04,28,11.10
2018,05,13,04,29,11.10
2018,05,13,04,30,11.00
2018,05,13,04,31,11.00
2018,05,13,04,32,11.00
2018,05,13,04,33,10.90
2018,05,13,04,34,10.90
2018,05,13,04,35,10.90
2018,05,13,04,36,10.90
2018,05,13,04,37,10.90
2018,05,13,04,38,10.80
2018,05,13,04,39,10.80
2018,05,13,04,40,10.80
2018,05,13,04,41,10.80
2018,05,13,04,42,10.80
2018,05,13,04,43,10.80
2018,05,13,04,44,10.80
2018,05,13,04,45,10.80
2018,05,13,04,46,10.80
2018,05,13,04,47,10.90
2018,05,13,04,48,10.90
2018,05,13,04,49,10.90
2018,05,13,04,50,10.90
2018,05,13,04,51,10.90
2018,05,13,04,52,10.90
2018,05,13,04,53,10.90
2018,05,13,04,54,10.90
2018,05,13,04,55,10.80
2018,05,13,04,56,10.80
2018,05,13,04,57,10.80
2018,05,13,04,58,10.80
2018,05,13,04,59,10.70
2018,05,13,05,00,10.70
2018,05,13,05,01,10.70
2018,05,13,05,02,10.70
2018,05,13,05,03,10.60
2018,05,13,05,04,10.60
2018,05,13,05,05,10.60
2018,05,13,05,06,10.50
2018,05,13,05,07,10.50
2018,05,13,05,08,10.50
2018,05,13,05,09,10.40
2018,05,13,05,10,10.40
2018,05,13,05,11,10.40
2018,05,13,05,12,10.40
2018,05,13,05,13,10.30
2018,05,13,05,14,10.30
2018,05,13,05,15,10.30
2018,05,13,05,16,10.30
2018,05,13,05,17,10.20
2018,05,13,05,18,10.20
2018,05,13,05,19,10.20
2018,05,13,05,20,10.20
2018,05,13,05,21,10.20
2018,05,13,05,22,10.20
2018,05,13,05,23,10.10
2018,05,13,05,24,10.10
2018,05,13,05,25,10.10
2018,05,13,05,26,10.10
2018,05,13,05,27,10.10
2018,05,13,05,28,10.00
2018,05,13,05,29,10.00
2018,05,13,05,30,10.00
2018,05,13,05,31,10.00
2018,05,13,05,32,10.00
2018,05,13,05,33,10.00
2018,05,13,05,34,10.00
2018,05,13,05,35,10.00
2018,05,13,05,36,10.10
2018,05,13,05,37,10.10
2018,05,13,05,38,10.10
2018,05,13,05,39,10.20
2018,05,13,05,40,10.20
2018,05,13,05,41,10.20
2018,05,13,05,42,10.30
2018,05,13,05,43,10.30
2018,05,13,05,44,10.30
2018,05,13,05,45,10.30
2018,05,13,05,46,10.30
2018,05,13,05,47,10.20
2018,05,13,05,48,10.20
2018,05,13,05,49,10.20
2018,05,13,05,50,10.20
2018,05,13,05,51,10.10
2018,05,13,05,52,10.10
2018,05,13,05,53,10.10
2018,05,13,05,54,10.10
2018,05,13,05,55,10.10
2018,05,13,05,56,10.10
2018,05,13,05,57,10.10
2018,05,13,05,58,10.10
2018,05,13,05,59,10.10
2018,05,13,06,00,10.00
2018,05,13,06,01,10.00
2018,05,13,06,02,10.00
2018,05,13,06,03,10.00
2018,05,13,06,04,10.00
2018,05,13,06,05,9.90
2018,05,13,06,06,9.90
2018,05,13,06,07,9.90
2018,05,13,06,08,9.90
2018,05,13,06,09,9.90
2018,05,13,06,10,9.90
2018,05,13,06,11,9.90
2018,05,13,06,12,9.90
2018,05,13,06,13,9.90
2018,05,13,06,14,9.90
2018,05,13,06,15,9.90
2018,05,13,06,16,9.90
2018,05,13,06,17,9.90
2018,05,13,06,18,9.90
2018,05,13,06,19,10.00
2018,05,13,06,20,10.00
2018,05,13,06,21,10.00
2018,05,13,06,22,10.10
2018,05,13,06,23,10.10
2018,05,13,06,24,10.20
2018,05,13,06,25,10.20
2018,05,13,06,26,10.30
2018,05,13,06,27,10.30
2018,05,13,06,28,10.40
2018,05,13,06,29,10.40
2018,05,13,06,30,10.50
2018,05,13,06,31,10.50
2018,05,13,06,32,10.50
2018,05,13,06,33,10.60
2018,05,13,06,34,10.60
2018,05,13,06,35,10.60
2018,05,13,06,36,10.60
2018,05,13,06,37,10.60
2018,05,13,06,38,10.70
2018,05,13,06,39,10.70
2018,05,13,06,40,10.70
2018,05,13,06,41,10.70
2018,05,13,06,42,10.80
2018,05,13,06,43,10.80
2018,05,13,06,44,10.80
2018,05,13,06,45,10.80
2018,05,13,06,46,10.90
2018,05,13,06,47,10.90
2018,05,13,06,48,10.90
2018,05,13,06,49,11.00
2018,05,13,06,50,11.00
2018,05,13,06,51,11.10
2018,05,13,06,52,11.10
2018,05,13,06,53,11.10
2018,05,13,06,54,11.10
2018,05,13,06,55,11.20
2018,05,13,06,56,11.20
2018,05,13,06,57,11.20
2018,05,13,06,58,11.30
2018,05,13,06,59,11.30
2018,05,13,07,00,11.30
2018,05,13,07,01,11.40
2018,05,13,07,02,11.40
2018,05,13,07,03,11.50
2018,05,13,07,04,11.50
2018,05,13,07,05,11.60
2018,05,13,07,06,11.60
2018,05,13,07,07,11.70
2018,05,13,07,08,11.70
2018,05,13,07,09,11.80
2018,05,13,07,10,11.80
2018,05,13,07,11,11.90
2018,05,13,07,12,11.90
2018,05,13,07,13,12.00
2018,05,13,07,14,12.00
2018,05,13,07,15,12.10
2018,05,13,07,16,12.10
2018,05,13,07,17,12.20
2018,05,13,07,18,12.20
2018,05,13,07,19,12.30
2018,05,13,07,20,12.30
2018,05,13,07,21,12.30
2018,05,13,07,22,12.40
2018,05,13,07,23,12.40
2018,05,13,07,24,12.50
2018,05,13,07,25,12.60
2018,05,13,07,26,12.60
2018,05,13,07,27,12.70
2018,05,13,07,28,12.70
2018,05,13,07,29,12.70
2018,05,13,07,30,12.80
2018,05,13,07,31,12.80
2018,05,13,07,32,12.90
2018,05,13,07,33,12.90
2018,05,13,07,34,13.00
2018,05,13,07,35,13.10
2018,05,13,07,36,13.20
2018,05,13,07,37,13.20
2018,05,13,07,38,13.30
2018,05,13,07,39,13.40
2018,05,13,07,40,13.50
2018,05,13,07,41,13.60
2018,05,13,07,42,13.70
2018,05,13,07,43,13.70
2018,05,13,07,44,13.80
2018,05,13,07,45,13.90
2018,05,13,07,46,13.90
2018,05,13,07,47,14.00
2018,05,13,07,48,14.10
2018,05,13,07,49,14.10
2018,05,13,07,50,14.10
2018,05,13,07,51,14.20
2018,05,13,07,52,14.20
2018,05,13,07,53,14.30
2018,05,13,07,54,14.30
2018,05,13,07,55,14.40
2018,05,13,07,56,14.40
2018,05,13,07,57,14.50
2018,05,13,07,58,14.50
2018,05,13,07,59,14.60
2018,05,13,08,00,14.60
2018,05,13,08,01,14.60
2018,05,13,08,02,14.70
2018,05,13,08,03,14.70
2018,05,13,08,04,14.80
2018,05,13,08,05,14.80
2018,05,13,08,06,14.90
2018,05,13,08,07,14.90
2018,05,13,08,08,14.90
2018,05,13,08,09,15.00
2018,05,13,08,10,15.00
2018,05,13,08,11,15.10
2018,05,13,08,12,15.10
2018,05,13,08,13,15.20
2018,05,13,08,14,15.20
2018,05,13,08,15,15.20
2018,05,13,08,16,15.30
2018,05,13,08,17,15.30
2018,05,13,08,18,15.40
2018,05,13,08,19,15.50
2018,05,13,08,20,15.50
2018,05,13,08,21,15.60
2018,05,13,08,22,15.60
2018,05,13,08,23,15.70
2018,05,13,08,24,15.70
2018,05,13,08,25,15.70
2018,05,13,08,26,15.80
2018,05,13,08,27,15.80
2018,05,13,08,28,15.80
2018,05,13,08,29,15.90
2018,05,13,08,30,15.90
2018,05,13,08,31,16.00
2018,05,13,08,32,16.00
2018,05,13,08,33,16.10
2018,05,13,08,34,16.10
2018,05,13,08,35,16.10
2018,05,13,08,36,16.10
2018,05,13,08,37,16.10
2018,05,13,08,38,16.10
2018,05,13,08,39,16.00
2018,05,13,08,40,16.00
2018,05,13,08,41,15.90
2018,05,13,08,42,15.90
2018,05,13,08,43,15.80
2018,05,13,08,44,15.80
2018,05,13,08,45,15.80
2018,05,13,08,46,15.70
2018,05,13,08,47,15.60
2018,05,13,08,48,15.50
2018,05,13,08,49,15.40
2018,05,13,08,50,15.30
2018,05,13,08,51,15.30
2018,05,13,08,52,15.30
2018,05,13,08,53,15.30
2018,05,13,08,54,15.30
2018,05,13,08,55,15.30
2018,05,13,08,56,15.30
2018,05,13,08,57,15.40
2018,05,13,08,58,15.40
2018,05,13,08,59,15.40
2018,05,13,09,00,15.50
2018,05,13,09,01,15.50
2018,05,13,09,02,15.60
2018,05,13,09,03,15.60
2018,05,13,09,04,15.60
2018,05,13,09,05,15.60
2018,05,13,09,06,15.70
2018,05,13,09,07,15.70
2018,05,13,09,08,15.70
2018,05,13,09,09,15.70
2018,05,13,09,10,15.70
2018,05,13,09,11,15.80
2018,05,13,09,12,15.90
2018,05,13,09,13,16.00
2018,05,13,09,14,16.00
2018,05,13,09,15,16.10
2018,05,13,09,16,16.20
2018,05,13,09,17,16.20
2018,05,13,09,18,16.20
2018,05,13,09,19,16.20
2018,05,13,09,20,16.20
2018,05,13,09,21,16.20
2018,05,13,09,22,16.20
2018,05,13,09,23,16.20
2018,05,13,09,24,16.30
2018,05,13,09,25,16.30
2018,05,13,09,26,16.30
2018,05,13,09,27,16.30
2018,05,13,09,28,16.30
2018,05,13,09,29,16.40
2018,05,13,09,30,16.40
2018,05,13,09,31,16.40
2018,05,13,09,32,16.40
2018,05,13,09,33,16.40
2018,05,13,09,34,16.40
2018,05,13,09,35,16.40
2018,05,13,09,36,16.50
2018,05,13,09,37,16.50
2018,05,13,09,38,16.60
2018,05,13,09,39,16.60
2018,05,13,09,40,16.60
2018,05,13,09,41,16.60
2018,05,13,09,42,16.60
2018,05,13,09,43,16.60
2018,05,13,09,44,16.70
2018,05,13,09,45,16.70
2018,05,13,09,46,16.80
2018,05,13,09,47,16.90
2018,05,13,09,48,17.00
2018,05,13,09,49,17.10
2018,05,13,09,50,17.10
2018,05,13,09,51,17.20
2018,05,13,09,52,17.30
2018,05,13,09,53,17.30
2018,05,13,09,54,17.40
2018,05,13,09,55,17.50
2018,05,13,09,56,17.60
2018,05,13,09,57,17.60
2018,05,13,09,58,17.60
2018,05,13,09,59,17.60
2018,05,13,10,00,17.60
2018,05,13,10,01,17.50
2018,05,13,10,02,17.50
2018,05,13,10,03,17.50
2018,05,13,10,04,17.50
2018,05,13,10,05,17.60
2018,05,13,10,06,17.70
2018,05,13,10,07,17.80
2018,05,13,10,08,17.90
2018,05,13,10,09,18.00
2018,05,13,10,10,18.00
2018,05,13,10,11,18.10
2018,05,13,10,12,18.10
2018,05,13,10,13,18.10
2018,05,13,10,14,18.20
2018,05,13,10,15,18.20
2018,05,13,10,16,18.30
2018,05,13,10,17,18.30
2018,05,13,10,18,18.30
2018,05,13,10,19,18.30
2018,05,13,10,20,18.40
2018,05,13,10,21,18.50
2018,05,13,10,22,18.50
2018,05,13,10,23,18.60
2018,05,13,10,24,18.60
2018,05,13,10,25,18.60
2018,05,13,10,26,18.60
2018,05,13,10,27,18.70
2018,05,13,10,28,18.70
2018,05,13,10,29,18.70
2018,05,13,10,30,18.70
2018,05,13,10,31,18.70
2018,05,13,10,32,18.60
2018,05,13,10,33,18.60
2018,05,13,10,34,18.60
2018,05,13,10,35,18.60
2018,05,13,10,36,18.60
2018,05,13,10,37,18.70
2018,05,13,10,38,18.70
2018,05,13,10,39,18.70
2018,05,13,10,40,18.70
2018,05,13,10,41,18.70
2018,05,13,10,42,18.80
2018,05,13,10,43,18.80
2018,05,13,10,44,18.90
2018,05,13,10,45,19.00
2018,05,13,10,46,19.10
2018,05,13,10,47,19.20
2018,05,13,10,48,19.20
2018,05,13,10,49,19.30
2018,05,13,10,50,19.30
2018,05,13,10,51,19.30
2018,05,13,10,52,19.30
2018,05,13,10,53,19.40
2018,05,13,10,54,19.50
2018,05,13,10,55,19.60
2018,05,13,10,56,19.70
2018,05,13,10,57,19.80
2018,05,13,10,58,19.90
2018,05,13,10,59,20.00
2018,05,13,11,00,20.10
2018,05,13,11,01,20.10
2018,05,13,11,02,20.20
2018,05,13,11,03,20.30
2018,05,13,11,04,20.50
2018,05,13,11,05,20.60
2018,05,13,11,06,20.70
2018,05,13,11,07,20.70
2018,05,13,11,08,20.80
2018,05,13,11,09,20.80
2018,05,13,11,10,20.80
2018,05,13,11,11,20.90
2018,05,13,11,12,20.90
2018,05,13,11,13,21.00
2018,05,13,11,14,21.00
2018,05,13,11,15,21.10
2018,05,13,11,16,21.10
2018,05,13,11,17,21.20
2018,05,13,11,18,21.20
2018,05,13,11,19,21.20
2018,05,13,11,20,21.30
2018,05,13,11,21,21.30
2018,05,13,11,22,21.30
2018,05,13,11,23,21.30
2018,05,13,11,24,21.40
2018,05,13,11,25,21.40
2018,05,13,11,26,21.50
2018,05,13,11,27,21.50
2018,05,13,11,28,21.60
2018,05,13,11,29,21.60
2018,05,13,11,30,21.70
2018,05,13,11,31,21.80
2018,05,13,11,32,21.90
2018,05,13,11,33,21.90
2018,05,13,11,34,22.00
2018,05,13,11,35,22.00
2018,05,13,11,36,22.00
2018,05,13,11,37,22.00
2018,05,13,11,38,22.10
2018,05,13,11,39,22.10
2018,05,13,11,40,22.10
2018,05,13,11,41,22.10
2018,05,13,11,42,22.10
2018,05,13,11,43,22.20
2018,05,13,11,44,22.20
2018,05,13,11,45,22.30
2018,05,13,11,46,22.40
2018,05,13,11,47,22.40
2018,05,13,11,48,22.50
2018,05,13,11,49,22.50
2018,05,13,11,50,22.50
2018,05,13,11,51,22.40
2018,05,13,11,52,22.40
2018,05,13,11,53,22.40
2018,05,13,11,54,22.40
2018,05,13,11,55,22.30
2018,05,13,11,56,22.30
2018,05,13,11,57,22.30
2018,05,13,11,58,22.30
2018,05,13,11,59,22.30
2018,05,13,12,00,22.30
2018,05,13,12,01,22.30
2018,05,13,12,02,22.30
2018,05,13,12,03,22.30
2018,05,13,12,04,22.30
2018,05,13,12,05,22.30
2018,05,13,12,06,22.30
2018,05,13,12,07,22.40
2018,05,13,12,08,22.50
2018,05,13,12,09,22.50
2018,05,13,12,10,22.60
2018,05,13,12,11,22.60
2018,05,13,12,12,22.70
2018,05,13,12,13,22.70
2018,05,13,12,14,22.70
2018,05,13,12,15,22.60
2018,05,13,12,16,22.60
2018,05,13,12,17,22.60
2018,05,13,12,18,22.70
2018,05,13,12,19,22.70
2018,05,13,12,20,22.80
2018,05,13,12,21,22.90
2018,05,13,12,22,22.90
2018,05,13,12,23,23.00
2018,05,13,12,24,23.00
2018,05,13,12,25,23.10
2018,05,13,12,26,23.10
2018,05,13,12,27,23.10
2018,05,13,12,28,23.10
2018,05,13,12,29,23.10
2018,05,13,12,30,23.10
2018,05,13,12,31,23.00
2018,05,13,12,32,22.90
2018,05,13,12,33,22.90
2018,05,13,12,34,22.90
2018,05,13,12,35,22.90
2018,05,13,12,36,22.90
2018,05,13,12,37,22.90
2018,05,13,12,38,23.00
2018,05,13,12,39,23.10
2018,05,13,12,40,23.20
2018,05,13,12,41,23.30
2018,05,13,12,42,23.30
2018,05,13,12,43,23.40
2018,05,13,12,44,23.50
2018,05,13,12,45,23.60
2018,05,13,12,46,23.60
2018,05,13,12,47,23.70
2018,05,13,12,48,23.70
2018,05,13,12,49,23.70
2018,05,13,12,50,23.70
2018,05,13,12,51,23.70
2018,05,13,12,52,23.70
2018,05,13,12,53,23.70
2018,05,13,12,54,23.70
2018,05,13,12,55,23.70
2018,05,13,12,56,23.70
2018,05,13,12,57,23.80
2018,05,13,12,58,23.80
2018,05,13,12,59,23.80
2018,05,13,13,00,23.90
2018,05,13,13,01,24.00
2018,05,13,13,02,24.00
2018,05,13,13,03,24.00
2018,05,13,13,04,24.10
2018,05,13,13,05,24.10
2018,05,13,13,06,24.10
2018,05,13,13,07,24.10
2018,05,13,13,08,24.10
2018,05,13,13,09,24.10
2018,05,13,13,10,24.10
2018,05,13,13,11,24.10
2018,05,13,13,12,24.00
2018,05,13,13,13,23.90
2018,05,13,13,14,23.90
2018,05,13,13,15,23.80
2018,05,13,13,16,23.70
2018,05,13,13,17,23.70
2018,05,13,13,18,23.70
2018,05,13,13,19,23.70
2018,05,13,13,20,23.80
2018,05,13,13,21,23.80
2018,05,13,13,22,23.80
2018,05,13,13,23,23.80
2018,05,13,13,24,23.80
2018,05,13,13,25,23.80
2018,05,13,13,26,23.80
2018,05,13,13,27,23.80
2018,05,13,13,28,23.80
2018,05,13,13,29,23.90
2018,05,13,13,30,23.80
2018,05,13,13,31,23.80
2018,05,13,13,32,23.80
2018,05,13,13,33,23.80
2018,05,13,13,34,23.80
2018,05,13,13,35,23.80
2018,05,13,13,36,23.80
2018,05,13,13,37,23.90
2018,05,13,13,38,23.90
2018,05,13,13,39,23.90
2018,05,13,13,40,24.00
2018,05,13,13,41,24.00
2018,05,13,13,42,24.10
2018,05,13,13,43,24.10
2018,05,13,13,44,24.10
2018,05,13,13,45,24.10
2018,05,13,13,46,24.10
2018,05,13,13,47,24.10
2018,05,13,13,48,24.10
2018,05,13,13,49,24.10
2018,05,13,13,50,24.10
2018,05,13,13,51,24.10
2018,05,13,13,52,24.10
2018,05,13,13,53,24.10
2018,05,13,13,54,24.10
2018,05,13,13,55,24.10
2018,05,13,13,56,24.10
2018,05,13,13,57,24.10
2018,05,13,13,58,24.10
2018,05,13,13,59,24.20
2018,05,13,14,00,24.20
2018,05,13,14,01,24.20
2018,05,13,14,02,24.30
2018,05,13,14,03,24.30
2018,05,13,14,04,24.40
2018,05,13,14,05,24.40
2018,05,13,14,06,24.40
2018,05,13,14,07,24.40
2018,05,13,14,08,24.50
2018,05,13,14,09,24.50
2018,05,13,14,10,24.60
2018,05,13,14,11,24.60
2018,05,13,14,12,24.70
2018,05,13,14,13,24.70
2018,05,13,14,14,24.70
2018,05,13,14,15,24.70
2018,05,13,14,16,24.70
2018,05,13,14,17,24.80
2018,05,13,14,18,24.80
2018,05,13,14,19,24.90
2018,05,13,14,20,24.90
2018,05,13,14,21,25.00
2018,05,13,14,22,25.00
2018,05,13,14,23,25.10
2018,05,13,14,24,25.10
2018,05,13,14,25,25.10
2018,05,13,14,26,25.10
2018,05,13,14,27,25.10
2018,05,13,14,28,25.00
2018,05,13,14,29,25.00
2018,05,13,14,30,24.90
2018,05,13,14,31,24.90
2018,05,13,14,32,24.90
2018,05,13,14,33,24.90
2018,05,13,14,34,25.00
2018,05,13,14,35,25.00
2018,05,13,14,36,25.00
2018,05,13,14,37,25.10
2018,05,13,14,38,25.10
2018,05,13,14,39,25.10
2018,05,13,14,40,25.20
2018,05,13,14,41,25.20
2018,05,13,14,42,25.20
2018,05,13,14,43,25.30
2018,05,13,14,44,25.30
2018,05,13,14,45,25.40
2018,05,13,14,46,25.50
2018,05,13,14,47,25.50
2018,05,13,14,48,25.60
2018,05,13,14,49,25.70
2018,05,13,14,50,25.70
2018,05,13,14,51,25.80
2018,05,13,14,52,25.80
2018,05,13,14,53,25.90
2018,05,13,14,54,26.00
2018,05,13,14,55,26.10
2018,05,13,14,56,26.20
2018,05,13,14,57,26.30
2018,05,13,14,58,26.30
2018,05,13,14,59,26.30
2018,05,13,15,00,26.30
2018,05,13,15,01,26.20
2018,05,13,15,02,26.20
2018,05,13,15,03,26.10
2018,05,13,15,04,26.10
2018,05,13,15,05,26.10
2018,05,13,15,06,26.10
2018,05,13,15,07,26.20
2018,05,13,15,08,26.20
2018,05,13,15,09,26.20
2018,05,13,15,10,26.10
2018,05,13,15,11,26.10
2018,05,13,15,12,26.00
2018,05,13,15,13,25.90
2018,05,13,15,14,25.90
2018,05,13,15,15,25.90
2018,05,13,15,16,25.90
2018,05,13,15,17,25.90
2018,05,13,15,18,25.90
2018,05,13,15,19,26.00
2018,05,13,15,20,26.10
2018,05,13,15,21,26.10
2018,05,13,15,22,26.10
2018,05,13,15,23,26.10
2018,05,13,15,24,26.10
2018,05,13,15,25,26.10
2018,05,13,15,26,26.10
2018,05,13,15,27,26.10
2018,05,13,15,28,26.10
2018,05,13,15,29,26.10
2018,05,13,15,30,26.20
2018,05,13,15,31,26.20
2018,05,13,15,32,26.20
2018,05,13,15,33,26.10
2018,05,13,15,34,26.10
2018,05,13,15,35,26.10
2018,05,13,15,36,26.10
2018,05,13,15,37,26.10
2018,05,13,15,38,26.10
2018,05,13,15,39,26.10
2018,05,13,15,40,26.10
2018,05,13,15,41,26.10
2018,05,13,15,42,26.30
2018,05,13,15,43,26.40
2018,05,13,15,44,26.40
2018,05,13,15,45,26.50
2018,05,13,15,46,26.60
2018,05,13,15,47,26.70
2018,05,13,15,48,26.80
2018,05,13,15,49,26.90
2018,05,13,15,50,26.90
2018,05,13,15,51,26.90
2018,05,13,15,52,26.90
2018,05,13,15,53,27.00
2018,05,13,15,54,27.10
2018,05,13,15,55,27.10
2018,05,13,15,56,27.20
2018,05,13,15,57,27.10
2018,05,13,15,58,27.10
2018,05,13,15,59,27.10
2018,05,13,16,00,27.00
2018,05,13,16,01,27.00
2018,05,13,16,02,27.00
2018,05,13,16,03,27.10
2018,05,13,16,04,27.10
2018,05,13,16,05,27.20
2018,05,13,16,06,27.20
2018,05,13,16,07,27.20
2018,05,13,16,08,27.20
2018,05,13,16,09,27.20
2018,05,13,16,10,27.20
2018,05,13,16,11,27.20
2018,05,13,16,12,27.20
2018,05,13,16,13,27.20
2018,05,13,16,14,27.10
2018,05,13,16,15,27.10
2018,05,13,16,16,27.00
2018,05,13,16,17,27.00
2018,05,13,16,18,26.90
2018,05,13,16,19,26.90
2018,05,13,16,20,26.90
2018,05,13,16,21,26.90
2018,05,13,16,22,27.00
2018,05,13,16,23,27.00
2018,05,13,16,24,27.00
2018,05,13,16,25,26.90
2018,05,13,16,26,26.90
2018,05,13,16,27,26.90
2018,05,13,16,28,26.80
2018,05,13,16,29,26.80
2018,05,13,16,30,26.90
2018,05,13,16,31,26.90
2018,05,13,16,32,26.90
2018,05,13,16,33,26.90
2018,05,13,16,34,26.90
2018,05,13,16,35,26.90
2018,05,13,16,36,27.00
2018,05,13,16,37,27.00
2018,05,13,16,38,27.00
2018,05,13,16,39,27.00
2018,05,13,16,40,27.00
2018,05,13,16,41,27.00
2018,05,13,16,42,27.00
2018,05,13,16,43,27.10
2018,05,13,16,44,27.10
2018,05,13,16,45,27.20
2018,05,13,16,46,27.20
2018,05,13,16,47,27.20
2018,05,13,16,48,27.20
2018,05,13,16,49,27.20
2018,05,13,16,50,27.20
2018,05,13,16,51,27.20
2018,05,13,16,52,27.20
2018,05,13,16,53,27.20
2018,05,13,16,54,27.20
2018,05,13,16,55,27.20
2018,05,13,16,56,27.20
2018,05,13,16,57,27.10
2018,05,13,16,58,27.10
2018,05,13,16,59,27.10
2018,05,13,17,00,27.00
2018,05,13,17,01,27.00
2018,05,13,17,02,27.10
2018,05,13,17,03,27.10
2018,05,13,17,04,27.10
2018,05,13,17,05,27.10
2018,05,13,17,06,27.10
2018,05,13,17,07,27.10
2018,05,13,17,08,27.20
2018,05,13,17,09,27.20
2018,05,13,17,10,27.20
2018,05,13,17,11,27.20
2018,05,13,17,12,27.20
2018,05,13,17,13,27.20
2018,05,13,17,14,27.20
2018,05,13,17,15,27.20
2018,05,13,17,16,27.10
2018,05,13,17,17,27.10
2018,05,13,17,18,27.10
2018,05,13,17,19,27.10
2018,05,13,17,20,27.00